User: anonymous   Login
Location: La Vergne
(36.0160°N, 86.5820°W)
Time: 00:34:56
(UTC-05:00)
Language:

Cosmos 1703 Rocket - Orbit

View from above orbital plane
View from above orbital plane
View from above satellite
View from above satellite

Ground track
Ground track

The orbit data is extracted from the following two-line orbital elements,

1 16263U 85108B   17268.43841312 +.00000107 +00000-0 +10191-4 0  9994
2 16263 082.5066 020.2685 0020619 022.2646 044.2192 14.83001071698167
Epoch (UTC): 25 September 2017 10:31:18
Eccentricity: 0.0020619
inclination: 82.5066°
perigee height: 605 km
apogee height: 634 km
right ascension of ascending node: 20.2685°
argument of perigee: 22.2646°
revolutions per day: 14.83001071
mean anomaly at epoch: 44.2192°
orbit number at epoch: 69816

The dashed part of the orbit path shows where the satellite is in the earth's shadow,  

DLR